sat.trackr.live / text

‹ back to catalog

STARLINK-31825

NORAD 60056 · 2024-112U

PAYLOAD ACTIVE UNKNOWN

§ Identity

Operator
Country
US
Launch date
2024-06-08
Launch site
AFWTR
Launch vehicle
Mass (kg)
RCS (m²)

Purposes: comms

External: N2YO · Heavens-Above · Gunter

§ Orbital elements

Epoch: 2026-05-24T23:25:11.165952Z

Period
94.03 min
Inclination
53.1592°
Eccentricity
0.0006644
Mean motion
15.31346421 rev/d
Perigee alt
467.2 km
Apogee alt
476.3 km
Semi-major
6,849.9 km
B*
5.0548e-3
RAAN
83.8481°
Arg perigee
167.7465°
Mean anomaly
192.3699°
Rev number
11,027

§ Raw data

STARLINK-318251 60056U 24112U   26144.97582368  .00158169  00000+0  50548-2 0  99952 60056  53.1592  83.8481 0006644 167.7465 192.3699 15.31346421110272

JSON: /api/v1/satellites/60056 · /tle

For live sub-satellite position, see the globe view (requires WebGL).

§ Visibility from observer

Set your observer location to see the next 7 days of passes ≥ 10°. The values pass through the URL so the page stays shareable.

No JS? Fill the form by hand. The geolocation button needs JavaScript.